sat.trackr.live / text

‹ back to catalog

OOV-CUBE (TUBSAT-30)

NORAD 60240 · 2024-128F

PAYLOAD ACTIVE UNKNOWN

§ Identity

Operator
Country
GER
Launch date
2024-07-09
Launch site
FRGUI
Launch vehicle
Mass (kg)
RCS (m²)

Purposes: comms, tech_demo

External: N2YO · Heavens-Above · Gunter

§ Orbital elements

Epoch: 2026-05-25T03:57:50.374368Z

Period
95.83 min
Inclination
61.9954°
Eccentricity
0.0047554
Mean motion
15.02638644 rev/d
Perigee alt
525.8 km
Apogee alt
591.8 km
Semi-major
6,936.9 km
B*
2.0792e-4
RAAN
305.8425°
Arg perigee
128.7153°
Mean anomaly
231.8205°
Rev number
10,265

§ Raw data

OOV-CUBE (TUBSAT-30)1 60240U 24128F   26145.16516637  .00002637  00000+0  20792-3 0  99922 60240  61.9954 305.8425 0047554 128.7153 231.8205 15.02638644102651

JSON: /api/v1/satellites/60240 · /tle

For live sub-satellite position, see the globe view (requires WebGL).

§ Visibility from observer

Set your observer location to see the next 7 days of passes ≥ 10°. The values pass through the URL so the page stays shareable.

No JS? Fill the form by hand. The geolocation button needs JavaScript.

§ Radio — SatNOGS DB

ModeDescriptionDownlinkUplink
FM Mode S - Transmitter 2.263 GHz
AFSK Mode U - AFSK1k2 435.950 MHz

2 transmitters · refreshed weekly from db.satnogs.org